Terminal Aerodrome Forecast
Issued by NWS

Home | Current Version | Previous Version | Text Only | Print | Product List | Glossary On
Versions: 1 2 3 4 5 6 7 8 9 10 11 12 13 14 15 16 17 18 19 20 21 22 23 24 25 26 27 28 29 30 31
547
FTAK31 PAFA 111447 AAB
TAFAOT
TAF AMD
PAOT 111447Z 1115/1212 07005KT 3SM BR SCT002
      TEMPO 1115/1118 3/4SM BR BKN002
     FM111800 07005KT P6SM SKC=

USA.gov is the U.S. government's official web portal to all federal, state and local government web resources and services.